BAW5 LPPT-KJFK

Flight info

Callsign BAW5
Flight time N/A
Altitude 60000
Route BUSEN UZ22 ERPES/M077F360 DCT 42N021W 43N025W 44N030W 44N035W 44N040W 44N045W 44N050W 44N055W/M077F380 43N060W 42N064W DCT JOBOC/N0442F380 DCT KENDA DCT LINND DCT OWENZ DCT CAMRN
Aircraft CONC/H-SDE2E3FGHIRYW/I

Departure

Time N/A
Airport Lisbon Humberto Delgado Airport (LPPT)

Arrival

Time 2026-05-09 16:57
Airport John F. Kennedy International Airport (KJFK)
Time Latitude Longitude Altitude Speed Heading
2026-05-09 16:26 39.41456 -71.36638 47048 ft 671 kts 269°
2026-05-09 16:26 39.41422 -71.42683 46275 ft 658 kts 269°
2026-05-09 16:27 39.41410 -71.48455 45538 ft 645 kts 269°
2026-05-09 16:27 39.41416 -71.54218 44796 ft 633 kts 269°
2026-05-09 16:27 39.41442 -71.59851 44085 ft 624 kts 269°
2026-05-09 16:27 39.41754 -71.65401 43485 ft 614 kts 278°
2026-05-09 16:28 39.42747 -71.70732 42808 ft 606 kts 285°
2026-05-09 16:28 39.44140 -71.75846 42189 ft 598 kts 287°
2026-05-09 16:28 39.45654 -71.80811 41718 ft 590 kts 288°
2026-05-09 16:28 39.47213 -71.85668 41169 ft 581 kts 289°
2026-05-09 16:29 39.48795 -71.90441 40507 ft 571 kts 289°
2026-05-09 16:29 39.50372 -71.95092 39891 ft 561 kts 289°
2026-05-09 16:29 39.51954 -71.99676 39182 ft 550 kts 289°
2026-05-09 16:29 39.53520 -72.04143 38340 ft 540 kts 289°
2026-05-09 16:30 39.55077 -72.08519 37372 ft 531 kts 289°
2026-05-09 16:30 39.56629 -72.12824 36452 ft 523 kts 290°
2026-05-09 16:30 39.58180 -72.17067 35633 ft 519 kts 290°
2026-05-09 16:30 39.59734 -72.21248 34961 ft 511 kts 290°
2026-05-09 16:31 39.61276 -72.25364 34107 ft 503 kts 290°
2026-05-09 16:31 39.62786 -72.29407 33024 ft 494 kts 291°
2026-05-09 16:31 39.64263 -72.33393 31625 ft 491 kts 291°
2026-05-09 16:31 39.65749 -72.37442 30297 ft 489 kts 291°
2026-05-09 16:32 39.67199 -72.41410 29298 ft 484 kts 291°
2026-05-09 16:32 39.68153 -72.44022 28686 ft 481 kts 291°
2026-05-09 16:32 39.70058 -72.49236 27456 ft 475 kts 291°
2026-05-09 16:32 39.71447 -72.53039 26537 ft 470 kts 291°
2026-05-09 16:33 39.72840 -72.56855 25614 ft 465 kts 291°
2026-05-09 16:33 39.74219 -72.60632 24709 ft 462 kts 291°
2026-05-09 16:33 39.75588 -72.64387 23868 ft 456 kts 291°
2026-05-09 16:33 39.76937 -72.68084 22960 ft 450 kts 291°
2026-05-09 16:34 39.78266 -72.71733 22067 ft 444 kts 291°
2026-05-09 16:34 39.79581 -72.75349 21210 ft 440 kts 291°
2026-05-09 16:34 39.80879 -72.78920 20448 ft 433 kts 291°
2026-05-09 16:34 39.82076 -72.82474 19703 ft 425 kts 285°
2026-05-09 16:35 39.82872 -72.86141 18869 ft 418 kts 282°
2026-05-09 16:35 39.83611 -72.89776 18028 ft 413 kts 282°
2026-05-09 16:35 39.84342 -72.93360 17197 ft 408 kts 282°
2026-05-09 16:35 39.85057 -72.96919 16312 ft 406 kts 282°
2026-05-09 16:36 39.85749 -73.00475 15461 ft 403 kts 281°
2026-05-09 16:36 39.87737 -73.11009 12967 ft 397 kts 280°
2026-05-09 16:37 39.88390 -73.14491 12159 ft 395 kts 280°
2026-05-09 16:37 39.89041 -73.17942 11440 ft 390 kts 280°
2026-05-09 16:37 39.89690 -73.21337 10893 ft 381 kts 280°
2026-05-09 16:37 39.90323 -73.24647 10352 ft 372 kts 280°
2026-05-09 16:38 39.90937 -73.27884 9783 ft 365 kts 279°
2026-05-09 16:38 39.91531 -73.31072 9205 ft 359 kts 279°
2026-05-09 16:38 39.92111 -73.34166 8988 ft 339 kts 279°
2026-05-09 16:38 39.92658 -73.37041 8984 ft 322 kts 279°
2026-05-09 16:39 39.93199 -73.39922 8988 ft 330 kts 279°
2026-05-09 16:39 39.93742 -73.42837 8987 ft 331 kts 279°
2026-05-09 16:39 39.94285 -73.45752 8984 ft 331 kts 279°
2026-05-09 16:39 39.94829 -73.48665 8983 ft 330 kts 279°
2026-05-09 16:40 39.95371 -73.51566 8982 ft 330 kts 279°
2026-05-09 16:40 39.95914 -73.54475 8982 ft 330 kts 279°
2026-05-09 16:42 40.03414 -73.71279 8955 ft 350 kts 345°
2026-05-09 16:42 40.05816 -73.71852 8689 ft 350 kts 346°
2026-05-09 16:42 40.08206 -73.72381 8322 ft 348 kts 346°
2026-05-09 16:42 40.10592 -73.72893 7951 ft 347 kts 346°
2026-05-09 16:43 40.12972 -73.73397 7579 ft 345 kts 347°
2026-05-09 16:43 40.15331 -73.73893 7208 ft 343 kts 347°
2026-05-09 16:43 40.17685 -73.74381 6833 ft 342 kts 349°
2026-05-09 16:43 40.20042 -73.74144 6438 ft 345 kts 18°
2026-05-09 16:44 40.22246 -73.72848 6087 ft 348 kts 25°
2026-05-09 16:44 40.24394 -73.71409 5734 ft 346 kts 26°
2026-05-09 16:44 40.26522 -73.69949 5381 ft 345 kts 26°
2026-05-09 16:44 40.28637 -73.68488 5028 ft 343 kts 27°
2026-05-09 16:45 40.30719 -73.67047 4765 ft 328 kts 27°
2026-05-09 16:45 40.32704 -73.65672 4593 ft 327 kts 27°
2026-05-09 16:45 40.34048 -73.64743 4498 ft 329 kts 27°
2026-05-09 16:45 40.36072 -73.63346 4354 ft 328 kts 27°
2026-05-09 16:46 40.38095 -73.61953 4211 ft 328 kts 27°
2026-05-09 16:46 40.40109 -73.60568 4068 ft 327 kts 27°
2026-05-09 16:46 40.42051 -73.59232 3989 ft 327 kts 27°
2026-05-09 16:46 40.44136 -73.57800 3990 ft 326 kts 27°
2026-05-09 16:47 40.46150 -73.56417 3993 ft 327 kts 27°
2026-05-09 16:47 40.48159 -73.55039 3994 ft 326 kts 27°
2026-05-09 16:47 40.50174 -73.53657 3991 ft 326 kts 27°
2026-05-09 16:47 40.52186 -73.52278 3993 ft 326 kts 27°
2026-05-09 16:48 40.54198 -73.50899 3998 ft 326 kts 27°
2026-05-09 16:48 40.56209 -73.49522 3997 ft 325 kts 27°
2026-05-09 16:48 40.58216 -73.48150 3996 ft 325 kts 27°
2026-05-09 16:48 40.60225 -73.46777 3996 ft 325 kts 27°
2026-05-09 16:49 40.62229 -73.45407 3995 ft 323 kts 27°
2026-05-09 16:49 40.64220 -73.44342 3966 ft 300 kts
2026-05-09 16:49 40.66213 -73.44580 3991 ft 282 kts 340°
2026-05-09 16:50 40.69924 -73.46136 3999 ft 281 kts 337°
2026-05-09 16:50 40.71778 -73.46960 3998 ft 282 kts 337°
2026-05-09 16:50 40.73634 -73.47791 3998 ft 282 kts 337°
2026-05-09 16:50 40.75492 -73.48624 3998 ft 282 kts 336°
2026-05-09 16:51 40.77345 -73.49457 3997 ft 282 kts 336°
2026-05-09 16:51 40.79201 -73.50292 3997 ft 282 kts 336°
2026-05-09 16:51 40.81035 -73.51136 3991 ft 282 kts 331°
2026-05-09 16:51 40.82555 -73.52691 3849 ft 267 kts 297°
2026-05-09 16:52 40.83205 -73.54873 3599 ft 248 kts 279°
2026-05-09 16:52 40.83582 -73.57030 3328 ft 235 kts 274°
2026-05-09 16:52 40.83418 -73.59078 3037 ft 221 kts 240°
2026-05-09 16:52 40.82714 -73.60799 2784 ft 210 kts 237°
2026-05-09 16:53 40.81998 -73.62428 2514 ft 202 kts 237°
2026-05-09 16:53 40.81284 -73.64026 2257 ft 202 kts 237°
2026-05-09 16:53 40.80348 -73.65378 2028 ft 200 kts 216°
2026-05-09 16:53 40.79196 -73.66398 2008 ft 200 kts 210°
2026-05-09 16:54 40.77979 -73.67297 1999 ft 201 kts 208°
2026-05-09 16:54 40.76743 -73.68164 1984 ft 201 kts 208°
2026-05-09 16:54 40.75511 -73.69029 1986 ft 200 kts 208°
2026-05-09 16:54 40.74283 -73.69891 1990 ft 199 kts 208°
2026-05-09 16:55 40.73121 -73.70706 1971 ft 184 kts 208°
2026-05-09 16:55 40.71996 -73.71495 1747 ft 183 kts 208°
2026-05-09 16:55 40.70870 -73.72285 1507 ft 184 kts 208°
2026-05-09 16:55 40.69721 -73.73090 1282 ft 190 kts 207°
2026-05-09 16:56 40.68548 -73.73912 1010 ft 191 kts 206°
2026-05-09 16:56 40.67377 -73.74732 763 ft 191 kts 207°
2026-05-09 16:56 40.66198 -73.75542 530 ft 190 kts 206°
2026-05-09 16:56 40.65036 -73.76362 224 ft 189 kts 208°
2026-05-09 16:57 40.63900 -73.77234 34 ft 186 kts 209°
2026-05-09 16:57 40.63014 -73.77924 25 ft 90 kts 211°
2026-05-09 16:57 40.62701 -73.78170 25 ft 34 kts 210°
2026-05-09 16:57 40.62645 -73.78328 25 ft 14 kts 303°
2026-05-09 16:58 40.62712 -73.78349 25 ft 12 kts 32°
2026-05-09 16:58 40.62791 -73.78286 25 ft 11 kts 31°
2026-05-09 16:58 40.62807 -73.78273 25 ft 1 kts 31°
2026-05-09 16:58 40.62820 -73.78263 25 ft 0 kts 31°
2026-05-09 16:59 40.62837 -73.78250 25 ft 5 kts 31°
2026-05-09 16:59 40.62854 -73.78236 25 ft 11 kts 28°
2026-05-09 16:59 40.62929 -73.78178 25 ft 14 kts 32°
2026-05-09 16:59 40.63020 -73.78110 25 ft 18 kts 35°
2026-05-09 17:00 40.63105 -73.78045 25 ft 12 kts 26°
2026-05-09 17:00 40.63191 -73.78014 25 ft 14 kts
2026-05-09 17:00 40.63250 -73.78004 25 ft 3 kts 15°
2026-05-09 17:00 40.63274 -73.77995 25 ft 3 kts 14°
2026-05-09 17:01 40.63294 -73.77989 25 ft 2 kts 12°
2026-05-09 17:01 40.63310 -73.77984 25 ft 1 kts 11°
2026-05-09 17:01 40.63315 -73.77984 25 ft 0 kts
2026-05-09 17:01 40.63318 -73.77984 25 ft 0 kts
2026-05-09 17:02 40.63319 -73.77984 25 ft 1 kts
2026-05-09 17:02 40.63330 -73.77959 25 ft 10 kts 83°
2026-05-09 17:02 40.63370 -73.77841 25 ft 16 kts 54°
2026-05-09 17:02 40.63458 -73.77747 25 ft 17 kts 29°
2026-05-09 17:03 40.63563 -73.77673 25 ft 18 kts 38°
2026-05-09 17:04 40.64452 -73.76994 25 ft 23 kts
2026-05-09 17:05 40.64614 -73.76987 25 ft 23 kts 360°
2026-05-09 17:05 40.64759 -73.77072 25 ft 24 kts 310°
2026-05-09 17:05 40.64847 -73.77257 25 ft 24 kts 301°
2026-05-09 17:05 40.64933 -73.77447 25 ft 24 kts 301°
2026-05-09 17:06 40.65019 -73.77637 25 ft 24 kts 300°
2026-05-09 17:06 40.65105 -73.77830 25 ft 24 kts 300°
2026-05-09 17:06 40.65192 -73.78022 25 ft 25 kts 301°
2026-05-09 17:06 40.65280 -73.78212 25 ft 25 kts 301°
2026-05-09 17:07 40.65350 -73.78369 25 ft 13 kts 297°
2026-05-09 17:07 40.65333 -73.78429 25 ft 12 kts 222°
2026-05-09 17:07 40.65215 -73.78420 25 ft 15 kts 158°
2026-05-09 17:07 40.65138 -73.78374 25 ft 7 kts 155°
2026-05-09 17:08 40.65121 -73.78364 25 ft 0 kts 155°